• In Deutschland
  • Länderverzeichnis
  • Für 7 Tage
  • Wassertemperatur
  • Satellitenkarten
  • Wetterkarte
  • Widgets
  • user-avatar
    Anmelden

    Stündliche Wetter Порту-Велью

    Heute, 18 Juni, Montag

    Zeit Temperatur Niederschläge Wind Luftdruck Luftfeuchtigkeit
    00:00 +20°C° 0 mm 0 m/S 756 mmHg 83%
    01:00 +20°C° 0 mm 0 m/S 756 mmHg 86%
    02:00 +21°C° 0 mm 1 m/S 756 mmHg 88%
    03:00 +21°C° 0 mm 1 m/S 756 mmHg 90%
    04:00 +18°C° 0 mm 0 m/S 756 mmHg 92%
    05:00 +18°C° 0 mm 0 m/S 756 mmHg 94%
    06:00 +21°C° 0 mm 1 m/S 757 mmHg 89%
    07:00 +22°C° 0 mm 1 m/S 757 mmHg 85%
    08:00 +23°C° 0 mm 2 m/S 757 mmHg 79%
    09:00 +26°C° 0 mm 2 m/S 757 mmHg 70%
    10:00 +28°C° 0 mm 2 m/S 757 mmHg 61%
    11:00 +30°C° 0 mm 2 m/S 757 mmHg 51%
    12:00 +31°C° 0 mm 2 m/S 756 mmHg 48%
    13:00 +34°C° 0 mm 2 m/S 756 mmHg 44%
    14:00 +35°C° 0 mm 2 m/S 755 mmHg 40%
    15:00 +33°C° 0 mm 1 m/S 755 mmHg 43%
    16:00 +32°C° 0 mm 1 m/S 754 mmHg 47%
    17:00 +32°C° 0 mm 1 m/S 754 mmHg 51%
    18:00 +29°C° 0 mm 1 m/S 754 mmHg 57%
    19:00 +27°C° 0 mm 1 m/S 754 mmHg 63%
    20:00 +25°C° 0 mm 1 m/S 755 mmHg 69%
    21:00 +24°C° 0 mm 1 m/S 755 mmHg 71%
    22:00 +24°C° 0 mm 1 m/S 755 mmHg 73%
    23:00 +23°C° 0 mm 1 m/S 756 mmHg 75%

    Morgen, 19 Juni, Dienstag

    Zeit Temperatur Niederschläge Wind Luftdruck Luftfeuchtigkeit
    00:00 +22°C° 0 mm 1 m/S 755 mmHg 77%
    01:00 +22°C° 0 mm 1 m/S 755 mmHg 79%
    02:00 +21°C° 0 mm 1 m/S 755 mmHg 81%
    03:00 +21°C° 0 mm 1 m/S 755 mmHg 83%
    04:00 +20°C° 0 mm 1 m/S 754 mmHg 85%
    05:00 +20°C° 0 mm 1 m/S 754 mmHg 86%
    06:00 +21°C° 0 mm 1 m/S 755 mmHg 83%
    07:00 +22°C° 0 mm 1 m/S 755 mmHg 79%
    08:00 +23°C° 0 mm 1 m/S 755 mmHg 75%
    09:00 +26°C° 0 mm 1 m/S 755 mmHg 66%
    10:00 +28°C° 0 mm 1 m/S 755 mmHg 56%
    11:00 +31°C° 0 mm 2 m/S 755 mmHg 47%
    12:00 +32°C° 0 mm 1 m/S 755 mmHg 43%
    13:00 +33°C° 0 mm 1 m/S 754 mmHg 39%
    14:00 +34°C° 0 mm 1 m/S 753 mmHg 35%
    15:00 +34°C° 0 mm 1 m/S 753 mmHg 40%
    16:00 +33°C° 0 mm 1 m/S 752 mmHg 44%
    17:00 +32°C° 0 mm 1 m/S 752 mmHg 49%
    18:00 +30°C° 0 mm 1 m/S 752 mmHg 54%
    19:00 +28°C° 0 mm 1 m/S 753 mmHg 59%
    20:00 +25°C° 0 mm 1 m/S 753 mmHg 64%
    21:00 +25°C° 0 mm 1 m/S 753 mmHg 66%
    22:00 +22°C° 0 mm 0 m/S 754 mmHg 67%
    23:00 +21°C° 0 mm 0 m/S 754 mmHg 69%

    übermorgen, 20 Juni, Mittwoch

    Zeit Temperatur Niederschläge Wind Luftdruck Luftfeuchtigkeit
    00:00 +21°C° 0 mm 0 m/S 754 mmHg 71%
    01:00 +20°C° 0 mm 0 m/S 754 mmHg 74%
    02:00 +20°C° 0 mm 0 m/S 754 mmHg 76%
    03:00 +19°C° 0 mm 0 m/S 754 mmHg 77%
    04:00 +19°C° 0 mm 0 m/S 753 mmHg 79%
    05:00 +19°C° 0 mm 0 m/S 753 mmHg 81%
    06:00 +20°C° 0 mm 0 m/S 754 mmHg 77%
    07:00 +21°C° 0 mm 0 m/S 754 mmHg 74%
    08:00 +22°C° 0 mm 0 m/S 755 mmHg 71%
    09:00 +27°C° 0 mm 1 m/S 755 mmHg 61%
    10:00 +30°C° 0 mm 1 m/S 755 mmHg 52%
    11:00 +33°C° 0 mm 1 m/S 755 mmHg 42%
    12:00 +34°C° 0 mm 1 m/S 754 mmHg 39%
    13:00 +35°C° 0 mm 1 m/S 753 mmHg 37%
    14:00 +36°C° 0 mm 1 m/S 752 mmHg 34%
    15:00 +35°C° 0 mm 1 m/S 752 mmHg 39%
    16:00 +32°C° 0 mm 0 m/S 752 mmHg 44%
    17:00 +31°C° 0 mm 0 m/S 751 mmHg 49%
    18:00 +28°C° 0 mm 0 m/S 752 mmHg 54%
    19:00 +26°C° 0 mm 0 m/S 752 mmHg 59%
    20:00 +24°C° 0 mm 0 m/S 753 mmHg 64%
    21:00 +24°C° 0 mm 0 m/S 753 mmHg 65%
    22:00 +23°C° 0 mm 0 m/S 753 mmHg 67%
    23:00 +23°C° 0 mm 0 m/S 754 mmHg 68%

    21 Juni, Donnerstag

    Zeit Temperatur Niederschläge Wind Luftdruck Luftfeuchtigkeit
    00:00 +22°C° 0 mm 0 m/S 754 mmHg 70%
    01:00 +22°C° 0 mm 0 m/S 753 mmHg 72%
    02:00 +21°C° 0 mm 0 m/S 753 mmHg 74%
    03:00 +21°C° 0 mm 0 m/S 753 mmHg 76%
    04:00 +21°C° 0 mm 0 m/S 753 mmHg 78%
    05:00 +20°C° 0 mm 0 m/S 753 mmHg 79%
    06:00 +21°C° 0 mm 0 m/S 754 mmHg 77%
    07:00 +22°C° 0 mm 0 m/S 754 mmHg 75%
    08:00 +23°C° 0 mm 0 m/S 755 mmHg 73%
    09:00 +26°C° 0 mm 0 m/S 755 mmHg 64%
    10:00 +30°C° 0 mm 1 m/S 755 mmHg 55%
    11:00 +33°C° 0 mm 1 m/S 755 mmHg 46%
    12:00 +34°C° 0 mm 1 m/S 754 mmHg 42%
    13:00 +35°C° 0 mm 1 m/S 753 mmHg 39%
    14:00 +36°C° 0 mm 1 m/S 752 mmHg 36%
    15:00 +35°C° 0 mm 1 m/S 752 mmHg 41%
    16:00 +32°C° 0 mm 0 m/S 751 mmHg 45%
    17:00 +31°C° 0 mm 0 m/S 751 mmHg 50%
    18:00 +29°C° 0 mm 0 m/S 752 mmHg 55%
    19:00 +27°C° 0 mm 0 m/S 752 mmHg 59%
    20:00 +25°C° 0 mm 0 m/S 753 mmHg 64%
    21:00 +25°C° 0 mm 0 m/S 753 mmHg 65%
    22:00 +24°C° 0 mm 0 m/S 753 mmHg 66%
    23:00 +24°C° 0 mm 0 m/S 754 mmHg 68%

    22 Juni, Freitag

    Zeit Temperatur Niederschläge Wind Luftdruck Luftfeuchtigkeit
    00:00 +23°C° 0 mm 0 m/S 753 mmHg 69%
    01:00 +23°C° 0 mm 0 m/S 753 mmHg 70%
    02:00 +23°C° 0 mm 0 m/S 753 mmHg 72%
    03:00 +22°C° 0 mm 0 m/S 753 mmHg 74%
    04:00 +22°C° 0 mm 0 m/S 753 mmHg 76%
    05:00 +21°C° 0 mm 0 m/S 753 mmHg 78%
    06:00 +22°C° 0 mm 0 m/S 753 mmHg 76%
    07:00 +23°C° 0 mm 0 m/S 754 mmHg 75%
    08:00 +24°C° 0 mm 0 m/S 755 mmHg 73%
    09:00 +27°C° 0 mm 0 m/S 755 mmHg 63%
    10:00 +29°C° 0 mm 0 m/S 755 mmHg 54%
    11:00 +34°C° 0 mm 1 m/S 754 mmHg 45%
    12:00 +35°C° 0 mm 1 m/S 753 mmHg 42%
    13:00 +36°C° 0 mm 1 m/S 752 mmHg 40%
    14:00 +36°C° 0 mm 1 m/S 751 mmHg 37%
    15:00 +35°C° 0 mm 1 m/S 751 mmHg 44%
    16:00 +31°C° 0 mm 0 m/S 751 mmHg 51%
    17:00 +30°C° 0 mm 0 m/S 750 mmHg 57%
    18:00 +29°C° 0 mm 0 m/S 751 mmHg 60%
    19:00 +27°C° 0 mm 0 m/S 751 mmHg 62%
    20:00 +26°C° 0 mm 0 m/S 752 mmHg 65%
    21:00 +26°C° 0 mm 0 m/S 752 mmHg 67%
    22:00 +25°C° 0 mm 0 m/S 752 mmHg 70%
    23:00 +24°C° 0 mm 0 m/S 752 mmHg 73%

    23 Juni, Samstag

    Zeit Temperatur Niederschläge Wind Luftdruck Luftfeuchtigkeit
    00:00 +24°C° 0 mm 0 m/S 752 mmHg 75%
    01:00 +23°C° 0 mm 0 m/S 752 mmHg 77%
    02:00 +23°C° 0 mm 0 m/S 751 mmHg 79%
    03:00 +22°C° 0 mm 0 m/S 751 mmHg 81%
    04:00 +22°C° 0 mm 0 m/S 751 mmHg 83%
    05:00 +22°C° 0 mm 0 m/S 751 mmHg 86%
    06:00 +22°C° 0 mm 0 m/S 752 mmHg 84%
    07:00 +23°C° 0 mm 0 m/S 753 mmHg 81%
    08:00 +24°C° 0 mm 0 m/S 753 mmHg 79%
    09:00 +27°C° 0 mm 0 m/S 753 mmHg 70%
    10:00 +29°C° 0 mm 0 m/S 753 mmHg 61%
    11:00 +32°C° 0 mm 0 m/S 753 mmHg 52%
    12:00 +32°C° 0,4 mm 0 m/S 752 mmHg 52%
    13:00 +34°C° 0,4 mm 1 m/S 751 mmHg 52%
    14:00 +35°C° 0,4 mm 1 m/S 750 mmHg 52%
    15:00 +32°C° 0 mm 0 m/S 750 mmHg 53%
    16:00 +32°C° 0 mm 0 m/S 749 mmHg 54%
    17:00 +31°C° 0 mm 0 m/S 749 mmHg 56%
    18:00 +29°C° 0 mm 0 m/S 750 mmHg 61%
    19:00 +27°C° 0 mm 0 m/S 750 mmHg 66%
    20:00 +25°C° 0 mm 0 m/S 750 mmHg 71%
    21:00 +25°C° 0 mm 0 m/S 751 mmHg 73%
    22:00 +25°C° 0 mm 0 m/S 751 mmHg 75%
    23:00 +24°C° 0 mm 0 m/S 751 mmHg 76%
    Mehr zeigen